Weather History for Houghton, MI

Change the Weather History Date:

Sunday, December 9, 2012

  Actual Average Record
Temperature  
Mean Temperature 24 °F -  
Max Temperature 30 °F 27 °F 45 °F (1990)
Min Temperature 17 °F 16 °F -1 °F (1976)
Degree Days  
Heating Degree Days 42    
Moisture  
Dew Point 23 °F    
Average Humidity 87    
Maximum Humidity 100    
Minimum Humidity 69    
Precipitation  
Precipitation 0.17 in - - ()
Sea Level Pressure  
Sea Level Pressure 30.03 in    
Wind  
Wind Speed 5 mph (ENE)    
Max Wind Speed 15 mph    
Max Gust Speed 21 mph    
Visibility 5 miles    
Events Fog , Snow    
Averages and records for this station are not official NWS values.
T = Trace of Precipitation, MM = Missing Value Source: NWS Daily Summary

Daily Weather History Graph

Daily Weather History Graph

Search for Another Location

Airport:

Trip Planner

Search our weather history database for the weather conditions in past years. The results will help you decide how hot, cold, wet, or windy it might be!

Date:

Astronomy

Dec. 09, 2012 Rise Set
Actual Time 8:28 AM EST 5:04 PM EST
Civil Twilight 7:53 AM EST 5:39 PM EST
Nautical Twilight 7:14 AM EST 6:18 PM EST
Astronomical Twilight 6:37 AM EST 6:55 PM EST
Moon 3:49 AM EST (12/9) 2:21 PM EST (12/9)
Length of Visible Light 9h 45m
Length of Day
8h 35m
Waning Crescent, 19% of the Moon is Illuminated
Dec 9
Waning Crescent
Dec 13
New
Dec 20
First Quarter
Dec 28
Full
Jan 4
Last Quarter

Hourly Weather History & Observations

Time (EST) Temp. Windchill Dew Point Humidity Pressure Visibility Wind Dir Wind Speed Gust Speed Precip Events Conditions
12:53 AM 17.1 °F 11.7 °F 12.9 °F 84% 30.20 in 10.0 mi ENE 3.5 mph - N/A   Clear
1:53 AM 21.0 °F - 18.0 °F 88% 30.20 in 10.0 mi Calm Calm - N/A   Clear
2:53 AM 21.9 °F - 18.0 °F 85% 30.20 in 10.0 mi Calm Calm - N/A   Clear
3:53 AM 23.0 °F 15.8 °F 18.0 °F 81% 30.22 in 10.0 mi South 5.8 mph - N/A   Mostly Cloudy
4:53 AM 23.0 °F - 18.0 °F 81% 30.20 in 10.0 mi Calm Calm - N/A   Clear
5:53 AM 23.0 °F - 18.0 °F 81% 30.22 in 10.0 mi Calm Calm - N/A   Overcast
6:53 AM 24.1 °F - 19.0 °F 81% 30.22 in 10.0 mi Calm Calm - N/A   Overcast
7:53 AM 25.0 °F 20.7 °F 19.9 °F 81% 30.22 in 10.0 mi ENE 3.5 mph - N/A   Overcast
8:53 AM 25.0 °F 20.7 °F 21.0 °F 85% 30.22 in 10.0 mi East 3.5 mph - N/A   Overcast
9:33 AM 24.8 °F 19.1 °F 21.2 °F 86% 30.16 in 2.0 mi East 4.6 mph - 0.00 in Snow Light Snow
9:43 AM 26.6 °F 21.2 °F 21.2 °F 80% 30.15 in 1.8 mi East 4.6 mph - 0.00 in Snow Light Snow
9:53 AM 26.1 °F 20.5 °F 23.0 °F 88% 30.21 in 1.8 mi East 4.6 mph - 0.00 in Snow Light Snow
10:03 AM 26.6 °F 21.2 °F 23.0 °F 86% 30.15 in 2.5 mi East 4.6 mph - 0.00 in Snow Light Snow
10:15 AM 26.6 °F 21.2 °F 23.0 °F 86% 30.14 in 4.0 mi East 4.6 mph - 0.00 in   Overcast
10:53 AM 27.0 °F 21.6 °F 24.1 °F 89% 30.21 in 10.0 mi ENE 4.6 mph - 0.00 in   Overcast
11:53 AM 28.0 °F 21.7 °F 24.1 °F 85% 30.19 in 10.0 mi East 5.8 mph - N/A   Overcast
12:04 PM 28.4 °F 23.3 °F 23.0 °F 80% 30.12 in 10.0 mi East 4.6 mph - N/A   Overcast
12:53 PM 28.9 °F 21.9 °F 23.0 °F 78% 30.15 in 10.0 mi ESE 6.9 mph - N/A   Overcast
1:53 PM 28.9 °F 20.4 °F 21.9 °F 75% 30.12 in 10.0 mi ESE 9.2 mph - N/A   Overcast
2:53 PM 30.0 °F 20.5 °F 23.0 °F 75% 30.07 in 10.0 mi ESE 11.5 mph - N/A   Overcast
3:53 PM 30.0 °F 22.4 °F 21.0 °F 69% 30.06 in 10.0 mi East 8.1 mph - N/A   Overcast
4:42 PM 30.2 °F 21.9 °F 21.2 °F 69% 29.99 in 10.0 mi East 9.2 mph - N/A   Overcast
4:53 PM 30.0 °F 21.7 °F 21.0 °F 69% 30.03 in 10.0 mi East 9.2 mph - N/A   Overcast
5:42 PM 28.4 °F 20.4 °F 24.8 °F 86% 29.96 in 2.5 mi East 8.1 mph - 0.00 in Snow Light Snow
5:53 PM 28.0 °F 20.0 °F 25.0 °F 88% 30.01 in 2.5 mi ENE 8.1 mph - 0.00 in Snow Light Snow
6:15 PM 28.4 °F 22.2 °F 26.6 °F 93% 29.96 in 2.0 mi ENE 5.8 mph - 0.00 in Snow Light Snow
6:28 PM 28.4 °F 21.2 °F 26.6 °F 93% 29.95 in 1.8 mi East 6.9 mph - 0.00 in Snow Light Snow
6:36 PM 28.4 °F 22.2 °F 26.6 °F 93% 29.95 in 2.5 mi ENE 5.8 mph - 0.00 in Snow Light Snow
6:53 PM 28.0 °F 20.0 °F 27.0 °F 96% 30.00 in 1.8 mi ENE 8.1 mph - 0.00 in Snow Light Snow
7:02 PM 28.4 °F 20.4 °F 26.6 °F 93% 29.94 in 1.8 mi ENE 8.1 mph - 0.00 in Snow Light Snow
7:26 PM 28.4 °F 20.4 °F 26.6 °F 93% 29.93 in 0.8 mi NE 8.1 mph - 0.01 in Snow Light Snow
7:53 PM 28.0 °F 20.8 °F 27.0 °F 96% 29.98 in 0.8 mi ENE 6.9 mph - 0.04 in Snow Light Snow
8:01 PM 28.4 °F 21.2 °F 26.6 °F 93% 29.93 in 1.5 mi NE 6.9 mph - 0.00 in Snow Light Snow
8:53 PM 28.0 °F 19.3 °F 27.0 °F 96% 29.96 in 0.2 mi ENE 9.2 mph - 0.04 in Fog , Snow Snow
9:08 PM 28.4 °F 20.4 °F 26.6 °F 93% 29.91 in 0.8 mi East 8.1 mph - 0.03 in Snow Light Snow
9:25 PM 28.4 °F 21.2 °F 26.6 °F 93% 29.90 in 1.2 mi ENE 6.9 mph - 0.04 in Snow Light Snow
9:41 PM 28.4 °F 18.5 °F 26.6 °F 93% 29.89 in 0.5 mi East 11.5 mph 20.7 mph 0.06 in Fog , Snow Snow
9:48 PM 28.4 °F 18.0 °F 28.4 °F 100% 29.89 in 0.2 mi East 12.7 mph 20.7 mph 0.07 in Fog , Snow Snow
9:53 PM 28.9 °F 21.1 °F 28.0 °F 96% 29.93 in 0.5 mi ENE 8.1 mph 20.7 mph 0.07 in Fog , Snow Snow
10:11 PM 28.4 °F 18.0 °F 26.6 °F 93% 29.87 in 0.5 mi ENE 12.7 mph 18.4 mph 0.01 in Fog , Snow Snow
10:28 PM 28.4 °F 18.0 °F 26.6 °F 93% 29.87 in 1.2 mi ENE 12.7 mph 20.7 mph 0.02 in Snow Light Snow
10:42 PM 26.6 °F 15.2 °F 26.6 °F 100% 29.87 in 2.0 mi ENE 13.8 mph - 0.02 in Snow Light Snow
10:53 PM 27.0 °F 16.1 °F 25.0 °F 92% 29.92 in 2.0 mi ENE 12.7 mph 20.7 mph 0.02 in Snow Light Snow
11:01 PM 26.6 °F 16.8 °F 24.8 °F 93% 29.87 in 2.5 mi ENE 10.4 mph - 0.00 in Snow Light Snow
11:07 PM 26.6 °F 16.2 °F 24.8 °F 93% 29.86 in 4.0 mi ENE 11.5 mph - 0.00 in Snow Light Snow
11:19 PM 26.6 °F 14.7 °F 23.0 °F 86% 29.86 in 9.0 mi ENE 15.0 mph 19.6 mph 0.00 in   Overcast
11:26 PM 26.6 °F 16.2 °F 21.2 °F 80% 29.87 in 10.0 mi ENE 11.5 mph 19.6 mph 0.00 in   Overcast
11:53 PM 26.1 °F 15.0 °F 19.9 °F 78% 29.91 in 10.0 mi ENE 12.7 mph 20.7 mph 0.00 in   Overcast